Vorticity
9 11 9 9 9 9 10 9 7 6 11 3 5 1 6 5 5 6 7 6 4 5 8 9 11 14 10 11 6 -5 2 10 -4 4 11 7 -11 1 3 9 -1 -2 3 4 3
7 9 12 10 10 11 9 10 9 9 5 9 5 5 2 7 6 6 -3 7 5 3 4 11 11 14 12 12 6 -4 -0 -4 -2 20 17 9 5 16 2 0 6 5 1 -3 11
7 8 9 15 12 11 11 10 9 9 10 7 8 5 6 7 8 2 3 6 4 5 4 10 6 11 11 14 2 4 2 -5 5 10 14 10 6 4 7 -1 1 -1 -5 7 3
13 12 5 11 16 14 12 12 12 9 9 11 8 8 -5 11 11 25 17 9 11 11 10 7 7 8 12 14 8 1 1 -1 -14 -8 2 11 6 -2 10 8 1 1 5 5 3
11 12 12 7 12 16 14 13 13 12 10 11 13 8 16 3 16 -15 16 11 11 16 17 13 9 9 7 11 14 1 6 -4 -14 -15 4 -1 7 8 -0 5 3 15 3 2 0
12 10 11 11 6 12 15 14 14 13 14 10 13 7 -0 -0 5 4 -3 -2 3 -10 -10 12 11 10 10 1 13 16 4 14 5 9 -5 4 6 2 4 2 6 6 6 6 1
9 8 8 8 8 7 11 13 15 16 13 14 12 14 7 -3 2 16 3 3 -5 -6 3 5 13 13 7 14 2 18 0 3 5 11 8 2 5 7 7 7 6 1 0 3 4
9 11 10 9 9 7 11 14 13 16 14 13 18 12 7 9 2 -11 11 13 4 3 5 10 10 5 8 3 5 15 9 4 3 -1 12 9 3 3 16 14 2 -2 0 1 3
11 13 13 11 10 10 10 20 13 20 19 15 19 17 12 12 14 11 1 2 12 20 20 7 10 7 5 -2 -2 2 -3 22 3 3 -0 1 3 9 17 19 14 12 12 14 14
9 12 14 15 14 13 10 15 25 13 24 18 21 9 -18 16 17 3 4 12 -2 2 7 12 11 8 5 -1 -1 -8 5 2 7 9 19 8 0 4 8 6 12 19 8 7 6
10 9 10 14 16 16 6 12 28 22 16 25 8 32 -15 32 42 4 43 -0 9 0 1 9 3 10 2 -3 0 5 -8 11 15 26 -12 10 20 14 11 0 3 10 7 1 1
14 11 9 11 19 22 5 7 16 13 33 17 31 8 2 -1 13 28 -6 27 12 1 2 13 8 6 7 5 3 1 -7 3 10 -0 -13 13 22 18 11 -2 1 7 9 9 11
9 10 12 9 17 24 5 6 10 10 3 25 22 18 22 -35 -12 9 16 16 18 10 4 -6 9 9 2 6 5 5 1 1 -7 -4 -16 17 16 3 1 1 7 6 8 9 9
12 5 8 9 9 23 11 4 5 -1 30 19 32 29 6 24 -4 24 16 8 7 19 12 10 2 28 1 2 10 5 9 2 -1 -0 6 16 4 22 22 17 24 21 22 20 12
12 6 5 -1 9 16 17 6 6 17 16 22 33 18 61 9 3 -9 12 8 21 1 -14 8 8 -13 19 6 8 9 8 7 4 -2 29 6 -2 49 37 15 5 13 20 19 15
11 10 6 7 9 9 13 13 8 21 9 4 11 33 12 43 -12 21 -26 12 16 -19 30 2 30 24 -7 2 22 8 11 10 1 18 22 7 -20 42 3 0 -1 18 24 -3 19
7 11 11 11 11 10 8 16 19 -12 3 28 17 12 45 25 32 -19 13 8 -58 21 4 24 -18 22 -2 12 20 23 -2 16 18 15 13 25 36 -22 -7 -8 36 12 32 26 1
8 17 16 16 18 20 13 14 -2 13 26 -54 -12 6 -12 56 34 37 -58 35 37 -14 39 -8 61 -5 7 4 -8 11 -3 -47 2 7 36 -5 4 -2 29 48 17 9 14 16 7
7 15 11 27 18 21 18 7 -9 31 -26 -3 -3 23 35 28 7 41 26 -19 17 -18 -30 18 -11 89 -24 23 18 25 2 -45 -12 13 3 2 49 4 24 13 17 -11 -1 0 1
10 18 33 7 16 29 18 -7 -6 -9 -19 -22 -11 -5 -20 3 12 66 10 54 17 24 -2 19 27 -36 98 -2 14 -13 7 40 -14 3 3 28 13 -44 31 -4 15 13 1 0 2
8 7 24 4 9 23 1 12 21 10 4 -12 3 0 -1 2 -18 -5 39 12 30 -1 -13 -36 10 53 17 -3 12 18 24 6 -1 -48 2 5 25 11 1 -5 -5 7 -8 6 6
7 6 29 -18 4 32 10 1 7 -15 0 -1 5 17 15 19 16 30 -11 4 62 32 20 -4 -14 19 -9 48 -21 8 13 -15 -27 24 13 -25 16 -24 15 48 3 -17 1 8 7
6 7 20 25 3 12 20 13 20 10 40 32 4 5 8 -8 20 30 9 -23 37 74 14 -28 45 23 69 13 26 39 15 5 -10 23 -1 -35 2 55 30 12 12 20 7 2 10
9 7 7 6 11 15 11 9 17 18 8 28 19 13 33 19 -7 -20 -19 24 -20 41 48 45 -20 -18 1 14 8 0 7 25 -3 -12 -4 -9 -12 -4 39 19 23 27 16 7 -1
6 4 8 -11 -8 -17 -5 -3 11 9 12 4 19 4 6 32 19 11 -4 8 4 -5 100 -8 -11 13 -22 -28 52 20 3 3 0 -13 -31 14 4 4 -20 -9 4 11 6 12 -2
9 3 6 9 5 12 4 -2 7 7 9 8 -1 12 4 -10 1 24 11 14 14 24 -31 59 45 19 43 -8 54 6 26 15 4 3 12 -20 -2 28 -14 -12 3 9 7 15 4
4 6 12 4 13 10 16 10 6 11 11 17 -5 -4 6 13 5 12 29 -6 -11 -17 -8 20 63 48 2 4 -19 70 7 1 8 9 -9 0 -10 -17 -7 10 17 -20 -1 -1 4
Height
3105 3104 3101 3099 3098 3098 3099 3099 3100 3102 3103 3105 3107 3108 3109 3109 3111 3114 3117 3118 3117 3117 3117 3118 3120 3120 3120 3122 3125 3126 3128 3127 3129 3129 3132 3134 3134 3135 3136 3136 3136 3137 3139 3141 3141
3097 3094 3093 3091 3088 3088 3089 3089 3090 3093 3095 3097 3099 3101 3101 3102 3104 3107 3114 3112 3113 3113 3114 3115 3116 3117 3118 3120 3122 3123 3123 3126 3128 3128 3130 3132 3133 3132 3133 3134 3135 3136 3138 3138 3139
3089 3086 3083 3082 3080 3079 3079 3078 3080 3081 3085 3089 3091 3093 3094 3095 3097 3102 3104 3106 3107 3108 3110 3111 3111 3113 3115 3117 3118 3118 3120 3124 3125 3126 3127 3130 3130 3131 3131 3131 3133 3135 3136 3137 3137
3080 3077 3075 3073 3072 3070 3069 3069 3069 3071 3074 3079 3084 3086 3087 3088 3092 3094 3097 3099 3102 3102 3104 3106 3107 3108 3110 3110 3114 3114 3117 3120 3122 3123 3124 3127 3127 3128 3129 3130 3129 3131 3132 3133 3134
3072 3068 3066 3063 3063 3062 3061 3060 3061 3061 3063 3067 3074 3076 3077 3075 3078 3090 3092 3094 3096 3097 3099 3101 3103 3105 3106 3107 3110 3109 3114 3116 3118 3119 3121 3122 3124 3124 3125 3127 3127 3127 3129 3130 3131
3065 3061 3057 3055 3053 3053 3053 3051 3052 3053 3053 3056 3061 3066 3066 3060 3076 3083 3085 3087 3090 3092 3095 3096 3099 3102 3101 3104 3104 3106 3109 3112 3113 3115 3116 3117 3119 3119 3121 3124 3124 3124 3124 3125 3126
3057 3054 3050 3046 3043 3041 3043 3043 3043 3043 3044 3046 3047 3052 3050 3046 3066 3070 3075 3080 3084 3085 3088 3093 3096 3098 3099 3100 3102 3102 3103 3104 3105 3108 3109 3113 3111 3109 3116 3118 3119 3119 3120 3121 3121
3050 3046 3043 3039 3035 3032 3031 3032 3032 3034 3035 3035 3037 3038 3032 3044 3057 3058 3066 3072 3077 3081 3083 3087 3091 3093 3093 3096 3096 3098 3098 3097 3100 3102 3105 3107 3100 3107 3111 3111 3112 3114 3114 3114 3116
3044 3040 3037 3032 3028 3025 3022 3022 3021 3022 3024 3026 3027 3028 3024 3035 3042 3053 3059 3065 3071 3074 3078 3081 3082 3085 3090 3089 3091 3090 3089 3091 3094 3097 3099 3100 3095 3100 3105 3104 3105 3107 3108 3108 3110
3038 3033 3029 3026 3022 3018 3016 3014 3013 3011 3014 3015 3017 3025 3019 3023 3034 3044 3054 3057 3062 3067 3071 3071 3073 3075 3079 3080 3076 3083 3087 3086 3085 3092 3093 3092 3090 3094 3098 3098 3099 3100 3101 3103 3104
3030 3026 3022 3018 3016 3013 3011 3008 3011 3008 3003 3006 3007 3011 3013 3020 3024 3030 3039 3047 3052 3056 3057 3062 3065 3057 3062 3070 3077 3081 3082 3082 3085 3088 3089 3087 3086 3089 3092 3092 3093 3094 3095 3096 3098
3023 3019 3015 3012 3010 3008 3007 3006 3005 3000 2992 2996 2997 2997 3005 3012 3013 3019 3030 3032 3037 3037 3047 3056 3046 3057 3065 3068 3071 3075 3077 3078 3081 3083 3084 3082 3080 3082 3085 3085 3087 3088 3089 3090 3092
3018 3014 3010 3007 3006 3004 3004 3003 3000 2996 2989 2981 2987 2988 2995 3004 3005 3012 3017 3021 3025 3032 3034 3036 3040 3056 3059 3062 3065 3065 3067 3074 3077 3080 3079 3078 3074 3074 3077 3078 3080 3080 3081 3082 3083
3012 3009 3006 3002 3004 3001 3000 2998 2997 2994 2987 2973 2975 2975 2984 2994 2995 3007 3008 3017 3019 3020 3028 3032 3041 3044 3051 3053 3059 3058 3062 3070 3074 3076 3075 3077 3067 3067 3070 3070 3071 3072 3073 3075 3077
3006 3004 3001 2997 2996 2998 2995 2993 2993 2993 2988 2972 2966 2967 2974 2981 2988 2996 3002 3007 3008 3012 3022 3015 3023 3034 3042 3041 3053 3050 3061 3065 3069 3071 3072 3069 3068 3057 3063 3061 3063 3065 3067 3069 3070
3000 2997 2995 2994 2993 2993 2989 2989 2991 2992 2978 2967 2965 2963 2967 2972 2979 2990 2992 2999 3003 3009 3014 3016 3022 3032 3029 3040 3046 3054 3059 3063 3064 3065 3062 3060 3063 3048 3053 3054 3055 3058 3058 3060 3062
2993 2990 2988 2985 2985 2986 2985 2985 2987 2978 2971 2966 2965 2965 2966 2966 2972 2980 2985 2988 2988 2999 3002 3009 3014 3019 3027 3036 3041 3047 3053 3056 3060 3057 3048 3053 3054 3040 3044 3047 3048 3050 3049 3052 3055
2986 2983 2982 2979 2975 2975 2977 2980 2973 2966 2966 2961 2960 2958 2957 2961 2965 2970 2974 2979 2984 2993 2994 3001 3006 3009 3013 3019 3026 3031 3038 3038 3045 3047 3046 3051 3038 3031 3036 3041 3044 3046 3047 3048 3050
2978 2978 2974 2971 2968 2966 2970 2968 2963 2963 2964 2962 2958 2958 2953 2953 2957 2962 2966 2966 2974 2982 2990 2993 2995 2998 3004 3013 3020 3024 3028 3033 3036 3038 3039 3034 3028 3030 3032 3032 3036 3040 3043 3045 3047
2971 2972 2969 2967 2964 2963 2962 2956 2957 2960 2962 2962 2960 2959 2953 2950 2948 2953 2953 2955 2966 2974 2981 2986 2991 2991 2995 3009 3013 3015 3020 3029 3031 3035 3037 3025 3022 3020 3024 3029 3031 3034 3037 3041 3042
2965 2965 2964 2963 2961 2958 2953 2952 2954 2956 2959 2958 2954 2953 2953 2953 2948 2944 2938 2947 2953 2960 2972 2979 2981 2981 2989 2989 2996 3003 3008 3015 3021 3021 3022 3024 3011 3014 3020 3024 3026 3030 3033 3035 3036
2960 2960 2958 2957 2958 2955 2951 2950 2953 2952 2954 2952 2949 2947 2948 2953 2950 2946 2942 2931 2952 2951 2954 2960 2969 2974 2974 2980 2989 2994 2996 3003 3009 3010 3010 3012 3005 3009 3013 3016 3022 3025 3029 3031 3031
2954 2954 2957 2953 2951 2950 2951 2948 2948 2947 2945 2945 2943 2943 2945 2945 2944 2939 2933 2931 2938 2941 2949 2962 2958 2967 2971 2979 2982 2982 2988 2991 2995 2999 3001 3008 2996 3006 3009 3011 3015 3018 3022 3025 3027
2951 2948 2950 2948 2947 2945 2945 2943 2944 2942 2940 2940 2938 2940 2938 2937 2940 2936 2935 2927 2917 2923 2930 2948 2950 2950 2948 2942 2947 2963 2967 2978 2985 2992 2990 2988 2994 3000 3003 3006 3009 3013 3017 3020 3023
2944 2942 2944 2941 2942 2941 2941 2939 2939 2938 2936 2936 2935 2935 2934 2928 2926 2923 2924 2918 2915 2925 2923 2930 2934 2942 2945 2951 2956 2956 2964 2970 2976 2972 2985 2970 2983 2992 2997 3001 3005 3009 3012 3014 3017
2939 2939 2938 2935 2935 2936 2936 2934 2934 2935 2934 2932 2931 2929 2929 2929 2927 2920 2919 2919 2918 2915 2917 2915 2921 2929 2936 2944 2950 2951 2957 2963 2967 2960 2971 2973 2974 2984 2992 2997 2999 3003 3005 3008 3011
2931 2932 2931 2929 2928 2929 2929 2929 2929 2931 2928 2927 2927 2925 2924 2924 2920 2916 2915 2913 2914 2916 2914 2912 2916 2921 2925 2935 2941 2944 2941 2945 2942 2955 2957 2958 2964 2978 2981 2986 2992 2996 2998 3001 3005